WESTFORD NEEDLES, 19030

Orbit data source: Space-Track

WESTFORD NEEDLES, 19030 is space debris in LEO originally from a launch on Thu, 09 May 1963 UTC launched from the Air Force Western Test Range (AFWTR). Debris objects in space refer to the collection of defunct objects orbiting the Earth. Examples of debris include non-operational satellites, rocket bodies, and fragments generated from explosions, collisions, or faulty payload assembly.

Loading next visibility...
Identifier
19030, 1963-014DY
Orbit
LEO
Country
Flag of USUS
Related business
Manufacturer
Unknown
Mission
Spacecraft
Bus & Motor
Unknown
Mass
Unknown
Launch date (UTC)
1963-05-09 (63 years ago)
Launch vehicle
Unknown
Launch site
Air Force Western Test Range (AFWTR)
Object type
Payload
Rocket body
Debris
Shape & HBR
Unknown shape, 1.1 m
Radar Cross Section
Medium (>0.1 m² and <1 m²)

Expand to show TLE details & history
Last TLE update: 2 days ago

TLE from 2 days ago
0 WESTFORD NEEDLES
1 19030U 63014DY  26032.02047833  .00000034  00000-0  14787-1 0  9992
2 19030  87.3509 243.9885 0025831 191.1275 168.9010  8.64551244377192
Epoch: 2026-02-01T00:29Z
TLE epoch observation values (Epoch: 2026-02-01T00:29:29.327Z)
Latitude
-0.00001°
Longitude
105.38019°
Altitude
3,677.326 km
Speed
6.289 km/s
True Right ascension
16h 15m 57s
True Declination
0° 00' 00"
Sunlit
Object was in daylight at epoch
Visualization orbit readout
Latitude
Unknown
Longitude
Unknown
Altitude
Unknown
Speed
Unknown
Apparent Right ascension
Unknown
Apparent Declination
Unknown
Sunlit
N/A
Visualization observer readout
Local Sidereal Time
08:44:36
Azimuth
Unknown
Elevation
Unknown
Doppler factor
Unknown
Orbital elements
Apogee altitude
3,673.439 km
Perigee altitude
3,621.645 km
Semi-major axis
10,025.679 km
Eccentricity
0.00258
Inclination
87.3509°
RAAN
243.9885°
Arg. of periapsis
191.1275°
True anomaly
168.9578°
Mean anomaly
168.901°
Eccentric anomaly
168.92942°
Mean motion
2.16208 °/min
Orbital period
166.51 mins
BSTAR
0.014787
Loading maneuver chart data...
Computing Atmospheric mass density...

Documentation

Showing up to 5 results
|